Regional Weather Roundup
Issued by NWS Goodland, KS

Home | Current Version | Previous Version | Text Only | Print | Product List | Glossary On
Versions: 1 2 3 4 5 6 7 8 9 10 11 12 13 14 15 16 17 18 19 20 21 22 23 24 25 26 27 28 29 30 31 32 33 34 35 36 37 38 39 40 41 42 43 44 45 46 47 48 49 50
000
ASUS43 KGLD 060808
RWRGLD

GOODLAND FORECAST AREA HOURLY WEATHER ROUNDUP
NATIONAL WEATHER SERVICE GOODLAND KS
100 AM MST TUE DEC 06 2016

...OFFICIAL OBSERVATIONS...

CITY           SKY/WX    TMP DP  RH WIND       PRES   REMARKS
GOODLAND KS    CLEAR     17   8  67 N13       29.97R WCI   4
HILL CITY KS   CLEAR     25  16  68 N9        29.98R
IMPERIAL NEB   CLEAR     19   9  65 NW9       29.99S
MCCOOK NEB     CLEAR     22  11  62 NW12      29.99R WCI  10
AKRON CO       CLEAR     12   6  77 NW10      29.96S WCI  -1
BURLINGTON CO  CLEAR     17   6  62 N10       29.96S WCI   5
LIMON CO       CLOUDY     2   0  91 N8        29.94R
$$

...UNOFFICIAL OBSERVATIONS...

CITY           SKY/WX    TMP DP  RH WIND       PRES   REMARKS
COLBY KS       CLEAR     21  14  73 NW16      29.99R WCI   7
LENORA KS        N/A     25  32 100 MISG        N/A
NORTON KS      CLEAR     19  10  68 NW9       29.97R
SHARON SPRINGS   N/A     20  11  66 NW16        N/A  WCI   6
TRENTON NEB      N/A     20  32 100 NW8         N/A
KIT CARSON CO    N/A     17   7  65 MISG        N/A
YUMA CO        FAIR      10   5  79 W9        29.99R
$$




USA.gov is the U.S. government's official web portal to all federal, state and local government web resources and services.